St. Joseph, KS

7:49 PM CST on November 11, 2019 (GMT -0600)
Rosecrans Memorial

Weather History for KSTJ - September, 2019

Change the Weather History Date:

Monday, September 2, 2019

  Actual Average Record
Temperature  
Mean Temperature 75 °F 72 °F  
Max Temperature 88 °F 84 °F 100 °F (1913)
Min Temperature 62 °F 60 °F 45 °F (1981)
Degree Days  
Heating Degree Days 0 0  
Month to date heating degree days 0 0  
Since 1 July heating degree days 0 5  
Cooling Degree Days 10 7  
Month to date cooling degree days 16 14  
Year to date cooling degree days 1160 1091  
Growing Degree Days 25 (Base 50)    
Moisture  
Dew Point 68 °F    
Average Humidity 76    
Maximum Humidity 93    
Minimum Humidity 59    
Precipitation  
Precipitation 0.00 in 0.16 in 2.55 in (1918)
Month to date precipitation 0.00 0.32  
Year to date precipitation 29.27 26.62  
Sea Level Pressure  
Sea Level Pressure 30.04 in    
Wind  
Wind Speed 7 mph (South)    
Max Wind Speed 16 mph    
Max Gust Speed 22 mph    
Visibility 9 miles    
Events      
T = Trace of Precipitation, MM = Missing Value Source: NWS Daily Summary

Daily Weather History Graph

Daily Weather History Graph

Search for Another Location

Airport or City:

Astronomy

Sep. 02, 2019 Rise Set
Actual Time 6:48 AM CDT 7:49 PM CDT
Civil Twilight 6:20 AM CDT 8:17 PM CDT
Nautical Twilight 5:47 AM CDT 8:49 PM CDT
Astronomical Twilight 5:13 AM CDT 9:24 PM CDT
Moon 10:31 AM CDT (9/2) 10:12 PM CDT (9/2)
Length of Visible Light 13h 56m
Length of Day
13h 01m
Waxing Crescent, 15% of the Moon is Illuminated
Sep 2
Waxing Crescent
Sep 5
First Quarter
Sep 13
Full
Sep 21
Last Quarter
Sep 28
New

Hourly Weather History & Observations

Time (CDT) Temp. Heat Index Dew Point Humidity Pressure Visibility Wind Dir Wind Speed Gust Speed Precip Events Conditions
12:53 AM 66.9 °F - 64.9 °F 93% 30.09 in 9.0 mi South 4.6 mph - N/A   Clear
1:53 AM 68.0 °F - 64.9 °F 90% 30.08 in 10.0 mi South 6.9 mph - N/A   Clear
2:53 AM 66.0 °F - 64.0 °F 93% 30.09 in 9.0 mi Calm Calm - N/A   Clear
3:53 AM 66.0 °F - 64.0 °F 93% 30.09 in 9.0 mi SSE 3.5 mph - N/A   Clear
4:53 AM 64.0 °F - 62.1 °F 93% 30.12 in 8.0 mi Calm Calm - N/A   Clear
5:53 AM 62.1 °F - 61.0 °F 96% 30.11 in 8.0 mi Calm Calm - N/A   Clear
6:53 AM 64.0 °F - 62.1 °F 93% 30.11 in 4.0 mi SE 4.6 mph - N/A   Clear
7:53 AM 66.9 °F - 64.9 °F 93% 30.12 in 4.0 mi Calm Calm - N/A   Clear
8:53 AM 72.0 °F - 66.9 °F 84% 30.11 in 10.0 mi South 4.6 mph - N/A   Clear
9:53 AM 75.9 °F - 68.0 °F 76% 30.10 in 10.0 mi South 8.1 mph - N/A   Clear
10:53 AM 78.1 °F - 69.1 °F 74% 30.10 in 10.0 mi SSE 6.9 mph - N/A   Clear
11:53 AM 81.0 °F 84.4 °F 70.0 °F 69% 30.09 in 10.0 mi SSE 6.9 mph - N/A   Clear
12:53 PM 84.0 °F 89.0 °F 71.1 °F 65% 30.05 in 10.0 mi SSE 8.1 mph - N/A   Clear
1:53 PM 84.9 °F 90.7 °F 72.0 °F 65% 30.04 in 10.0 mi South 10.4 mph - N/A   Scattered Clouds
2:53 PM 86.0 °F 92.2 °F 72.0 °F 63% 30.01 in 10.0 mi SSE 11.5 mph - N/A   Mostly Cloudy
3:53 PM 88.0 °F 95.6 °F 73.0 °F 61% 29.99 in 10.0 mi South 12.7 mph - N/A   Scattered Clouds
4:53 PM 88.0 °F 94.7 °F 72.0 °F 59% 29.97 in 10.0 mi South 10.4 mph - N/A   Scattered Clouds
5:53 PM 86.0 °F 91.5 °F 71.1 °F 61% 29.96 in 10.0 mi South 11.5 mph 20.7 mph N/A   Clear
6:53 PM 84.0 °F 89.6 °F 72.0 °F 67% 29.95 in 10.0 mi South 9.2 mph - N/A   Clear
7:53 PM 81.0 °F 85.2 °F 72.0 °F 74% 29.94 in 10.0 mi South 6.9 mph - N/A   Clear
8:53 PM 78.1 °F - 72.0 °F 81% 29.94 in 10.0 mi South 6.9 mph - N/A   Clear
9:53 PM 77.0 °F - 71.1 °F 82% 29.94 in 10.0 mi South 9.2 mph - N/A   Clear
10:53 PM 77.0 °F - 71.1 °F 82% 29.94 in 10.0 mi South 11.5 mph - N/A   Clear
11:53 PM 77.0 °F - 72.0 °F 84% 29.92 in 10.0 mi South 10.4 mph - N/A   Clear